Observations for Trim Market St
| Time | AQI | Temp °C | Hum % | Pres Pa | CO μg/m³ | H₂S μg/m³ | NO μg/m³ | NO₂ μg/m³ | O₃ μg/m³ | SO₂ μg/m³ | PM1 μg/m³ | PM2.5 μg/m³ | PM10 μg/m³ |
|---|---|---|---|---|---|---|---|---|---|---|---|---|---|
| Tuesday 18 August 2026 | |||||||||||||
| 01:11 | 2 | 19.8 | 79 | 2,147,483,647 | 0.01 | 0 | 1.98 | 0.46 | 53.56 | 0 | 2.14 | 4.53 | 8.11 |
| 01:07 | 2 | 19.8 | 79 | 2,147,483,647 | 0.02 | 0 | 1.99 | 0.32 | 50.93 | 0 | 1.43 | 3.1 | 6.96 |
| 01:06 | 2 | 19.8 | 79 | 2,147,483,647 | 0.02 | 0 | 1.99 | 0.43 | 49.99 | 0 | 2.14 | 3.58 | 6.38 |
| 01:00 | 2 | 19.9 | 79 | 2,147,483,647 | 0.04 | 0 | 2.02 | 0.15 | 50.4 | 0 | 2.85 | 3.57 | 6.39 |
| 00:57 | 2 | 19.9 | 79 | 2,147,483,647 | 0.02 | 0 | 2.02 | 0.16 | 50.36 | 0 | 1.43 | 4.04 | 7.53 |
| 00:52 | 2 | 19.9 | 79 | 2,147,483,647 | 0.04 | 0 | 2.02 | 0.08 | 54.7 | 0 | 2.14 | 4.04 | 7.53 |
| 00:51 | 2 | 19.9 | 79 | 2,147,483,647 | 0.03 | 0 | 2.03 | 0.08 | 48.67 | 0 | 2.14 | 3.56 | 7.53 |
| 00:50 | 2 | 19.9 | 79 | 2,147,483,647 | 0.03 | 0 | 2.03 | 0.08 | 49.08 | 0 | 1.43 | 3.56 | 6.39 |
| 00:49 | 2 | 19.9 | 79 | 2,147,483,647 | 0.04 | 0 | 2.02 | 0.09 | 54.19 | 0 | 2.14 | 3.09 | 6.39 |
| 00:48 | 2 | 19.8 | 79 | 2,147,483,647 | 0.03 | 0 | 2.02 | 0.2 | 49.38 | 0 | 2.85 | 4.03 | 7.53 |
| 00:47 | 2 | 19.9 | 79 | 2,147,483,647 | 0.03 | 0 | 2.04 | 0.03 | 53.17 | 0 | 1.43 | 3.56 | 6.39 |
| 00:46 | 2 | 19.9 | 79 | 2,147,483,647 | 0.04 | 0 | 2.04 | 0.01 | 51.52 | 0 | 2.85 | 3.08 | 6.96 |
| 00:45 | 2 | 19.9 | 79 | 2,147,483,647 | 0.03 | 0 | 2.04 | 0.02 | 52.77 | 0 | 2.14 | 3.08 | 5.82 |
| 00:44 | 2 | 19.9 | 80 | 2,147,483,647 | 0.03 | 0 | 2.05 | 0 | 45.45 | 0 | 2.14 | 4.5 | 7.53 |
| 00:43 | 2 | 19.8 | 80 | 2,147,483,647 | 0.04 | 0 | 2.04 | 1.15 | 45.69 | 0 | 2.14 | 3.55 | 6.96 |
| 00:42 | 2 | 19.9 | 80 | 2,147,483,647 | 0.03 | 0 | 2.06 | 0 | 50.16 | 0 | 2.85 | 4.02 | 7.53 |
| 00:41 | 2 | 19.8 | 80 | 2,147,483,647 | 0.03 | 0 | 2.03 | 0.11 | 48.05 | 0 | 2.14 | 3.55 | 6.39 |
| 00:40 | 2 | 19.9 | 80 | 2,147,483,647 | 0.03 | 0 | 2.05 | 0 | 51.31 | 0 | 1.43 | 4.01 | 6.96 |
| 00:39 | 2 | 19.9 | 80 | 2,147,483,647 | 0.04 | 0 | 2.04 | 0 | 54.38 | 0 | 1.43 | 3.07 | 6.39 |
| 00:34 | 2 | 19.9 | 80 | 2,147,483,647 | 0.03 | 0 | 1.87 | 0 | 46.11 | 0 | 2.14 | 4.48 | 8.1 |